Location: Unnamed
(48.6007°N, 2.4808°E)
Time: 11:20:39
(UTC+02:00)

PCSat - Pass Details

Date: 28 March 2023
Orbit: 783 x 794 km, 67.1° (Epoch: 29 May)

Event Time Altitude Azimuth Distance (km) Brightness Sun altitude
Rises 00:15:12 0° 325° (NW) 3,299 13.8 -34.2°
Reaches altitude 10° 00:18:30 10° 345° (NNW) 2,370 12.8 -34.5°
Maximum altitude 00:22:02 17° 26° (NNE) 1,912 11.8 -34.8°
Enters shadow 00:22:34 17° 33° (NNE) 1,924 11.8 -34.8°
